PAMCPAUN

Guest
Details From PAMC - MC GRATH
To PAUN - Unalakleet
Flight Number -
Tags generated
Created
Modified
Stats Distance 151 nm / 279 km
Max Altitude 10,200 ft / 3,109 m
Waypoints 5
Social Downloads 1
Likes 0
Share VATSIM

Download

Looking for another format? Having issues loading an existing format? Contact us
Advertisement - Login to hide

Notes

Basic altitude profile: - Ascent Rate: 2500ft/min - Ascent Speed: 250kts - Cruise Altitude: 1200000ft - Cruise Speed: 180kts - Descent Rate: 1500ft/min - Descent Speed: 150kts Options: - Use NATs: no - Use PACOTS: no - Use low airways: yes - Use high airways: no

Route

PAMC GANES V440 UNK PAUN

ID Type Via Altitude Latitude Longitude Leg Dist Tot Dist Heading (true) Name
O PAMC APT - 0 ft / 0 m 62.95479˚ -155.60657˚ - 0 nm - MC GRATH
GANES FIX - 7,800 ft / 2,377 m 63.10213˚ -156.34424˚ 21 nm 21 nm 294° / 293° -
YUCON FIX V440 (AWY-LO) 10,200 ft / 3,109 m 63.62422˚ -159.10224˚ 80 nm 102 nm 294° / 292° -
UNK VOR V440 (AWY-LO) 4,500 ft / 1,372 m 63.89194˚ -160.68428˚ 44 nm 147 nm 292° / 290° UNALAKLEET VOR-DME
O PAUN APT - 0 ft / 0 m 63.88659˚ -160.79693˚ 2 nm 150 nm 264° / 264° Unalakleet

Altitude Profile

Advertisement - Login to hide

PAMC

Details ICAO PAMC (MCG)
Name MC GRATH
Region USA (Alaska)
Timezone America/Anchorage (UTC-8.0)
Stats Elevation 338 ft / 103 m (AMSL)
Location 62.954791° -155.606573°
Runways 2
Magnetic Variation 14.176° E

METAR

PAMC 260153Z 01004KT 10SM CLR 16/02 A2963 RMK AO2 RAB31E41 SLP036 P0000 T01560022

Decode

TAF

TAF PAMC 252346Z 2600/2624 24006KT P6SM VCSH BKN040 FM260600 VRB03KT P6SM SCT080 FM262200 30010KT P6SM VCTS OVC040CB

Decode

Departure Runways

ID Width Length Bearing (true) Bearing (mag) Surface Threshold Offset Overrun Length
07 60 ft / 18 m 1,714 ft / 522 m 94.00° 79.82° Asphalt 0 ft / 0 m 0 ft / 0 m
16 100 ft / 30 m 5,923 ft / 1,805 m 178.92° 164.74° Asphalt 556 ft / 169 m 0 ft / 0 m
25 60 ft / 18 m 1,714 ft / 522 m 274.01° 259.83° Asphalt 0 ft / 0 m 0 ft / 0 m
34 100 ft / 30 m 5,923 ft / 1,805 m 358.92° 344.74° Asphalt 547 ft / 167 m 0 ft / 0 m

PAUN

Details ICAO PAUN (UNK)
Name Unalakleet
Region USA (Alaska)
Timezone America/Anchorage (UTC-8.0)
Stats Elevation 68 ft / 21 m (AMSL)
Location 63.886590° -160.796931°
Runways 2
Magnetic Variation 12.022° E

METAR

PAUN 260156Z AUTO 28011KT 10SM BKN046 OVC060 06/02 A2974 RMK AO2 SLP073 T00610017

Decode

TAF

PAUN 252346Z 2600/2624 31016KT P6SM VCSH BKN040 FM260800 25010KT P6SM SCT050

Decode

Destination Runways

ID Width Length Bearing (true) Bearing (mag) Surface Threshold Offset Overrun Length
15 151 ft / 46 m 5,990 ft / 1,826 m 164.15° 152.13° Asphalt 0 ft / 0 m 499 ft / 152 m
26 79 ft / 24 m 1,993 ft / 608 m 278.43° 266.41° Asphalt 0 ft / 0 m 0 ft / 0 m
33 151 ft / 46 m 5,990 ft / 1,826 m 344.16° 332.14° Asphalt 0 ft / 0 m 0 ft / 0 m
8 79 ft / 24 m 1,993 ft / 608 m 98.42° 86.40° Asphalt 0 ft / 0 m 0 ft / 0 m

Popular Alternatives